Weather History for KAPA - October, 2012

Change the Weather History Date:

Tuesday, October 9, 2012

  Actual Average Record
Temperature  
Mean Temperature 45 °F -  
Max Temperature 56 °F 66 °F 82 °F (2003)
Min Temperature 33 °F 36 °F 28 °F (2000)
Degree Days  
Heating Degree Days 20    
Month to date heating degree days 161  
Moisture  
Dew Point 30 °F    
Average Humidity 48    
Maximum Humidity 82    
Minimum Humidity 14    
Precipitation  
Precipitation 0.00 in - - ()
Month to date precipitation 0.12  
Year to date precipitation 12.91  
Sea Level Pressure  
Sea Level Pressure 30.04 in    
Wind  
Wind Speed 9 mph (East)    
Max Wind Speed 21 mph    
Max Gust Speed 25 mph    
Visibility 10 miles    
Events      
Averages and records for this station are not official NWS values.
T = Trace of Precipitation, MM = Missing Value Source: NWS Daily Summary

Daily Weather History Graph

Daily Weather History Graph

Search for Another Location

Airport or City:

Trip Planner

Search our weather history database for the weather conditions in past years. The results will help you decide how hot, cold, wet, or windy it might be!

Date:

Astronomy

Oct. 09, 2012 Rise Set
Actual Time 7:03 AM MDT 6:28 PM MDT
Civil Twilight 6:36 AM MDT 6:55 PM MDT
Nautical Twilight 6:05 AM MDT 7:26 PM MDT
Astronomical Twilight 5:34 AM MDT 7:57 PM MDT
Moon 12:44 AM MDT (10/9) 2:56 PM MDT (10/9)
Length of Visible Light 12h 18m
Length of Day
11h 24m
Last Quarter, 36% of the Moon is Illuminated
Oct 9
Last Quarter
Oct 15
New
Oct 21
First Quarter
Oct 29
Full
Nov 6
Last Quarter

Hourly Weather History & Observations

Time (MDT) Temp. Windchill Dew Point Humidity Pressure Visibility Wind Dir Wind Speed Gust Speed Precip Events Conditions
12:53 AM 55.0 °F - 6.1 °F 14% 29.75 in 10.0 mi SSW 17.3 mph - N/A   Partly Cloudy
2:53 AM 53.1 °F - 12.0 °F 20% 29.78 in 10.0 mi WSW 13.8 mph - N/A   Clear
3:53 AM 48.9 °F - 15.1 °F 26% 29.80 in 10.0 mi WSW 10.4 mph - N/A   Clear
4:53 AM 42.1 °F 39.2 °F 21.0 °F 43% 29.86 in 10.0 mi NE 4.6 mph - N/A   Clear
5:53 AM 37.0 °F 31.6 °F 27.0 °F 67% 29.93 in 10.0 mi NNW 6.9 mph - N/A   Clear
6:53 AM 36.0 °F 33.3 °F 30.0 °F 79% 29.98 in 10.0 mi NNW 3.5 mph - N/A   Scattered Clouds
7:53 AM 37.0 °F - 30.9 °F 79% 30.01 in 10.0 mi Calm Calm - N/A   Scattered Clouds
8:53 AM 41.0 °F 39.0 °F 30.9 °F 67% 30.01 in 10.0 mi Variable 3.5 mph - N/A   Scattered Clouds
9:53 AM 43.0 °F 41.3 °F 30.9 °F 62% 30.04 in 10.0 mi Variable 3.5 mph - N/A   Scattered Clouds
10:53 AM 44.1 °F 40.1 °F 33.1 °F 65% 30.05 in 10.0 mi NNE 6.9 mph - N/A   Scattered Clouds
11:53 AM 45.0 °F 39.7 °F 33.1 °F 63% 30.04 in 10.0 mi NE 10.4 mph - N/A   Mostly Cloudy
12:53 PM 46.0 °F 44.8 °F 34.0 °F 63% 30.01 in 10.0 mi Variable 3.5 mph - N/A   Scattered Clouds
1:53 PM 46.9 °F - 34.0 °F 61% 30.01 in 10.0 mi NE 5.8 mph - N/A   Scattered Clouds
2:21 PM 46.4 °F 40.7 °F 35.6 °F 66% 30.09 in 10.0 mi NNE 12.7 mph 17.3 mph N/A   Mostly Cloudy
2:53 PM 45.0 °F 38.9 °F 35.1 °F 68% 30.05 in 10.0 mi NE 12.7 mph - N/A   Mostly Cloudy
3:53 PM 43.0 °F 37.7 °F 34.0 °F 71% 30.09 in 10.0 mi ENE 9.2 mph - N/A   Overcast
4:53 PM 43.0 °F 39.5 °F 34.0 °F 71% 30.13 in 10.0 mi East 5.8 mph - N/A   Overcast
5:53 PM 43.0 °F 41.3 °F 34.0 °F 71% 30.17 in 10.0 mi ENE 3.5 mph - N/A   Overcast
6:53 PM 43.0 °F 41.3 °F 34.0 °F 71% 30.19 in 10.0 mi East 3.5 mph - N/A   Overcast
7:53 PM 43.0 °F 40.3 °F 34.0 °F 71% 30.22 in 10.0 mi SE 4.6 mph - N/A   Overcast
8:53 PM 43.0 °F 41.3 °F 34.0 °F 71% 30.21 in 10.0 mi SE 3.5 mph - N/A   Overcast
9:53 PM 43.0 °F 40.3 °F 34.0 °F 71% 30.22 in 10.0 mi SE 4.6 mph - N/A   Overcast
10:53 PM 43.0 °F 38.8 °F 34.0 °F 71% 30.20 in 10.0 mi SSE 6.9 mph - N/A   Overcast
11:53 PM 43.0 °F 38.8 °F 35.1 °F 74% 30.18 in 10.0 mi SE 6.9 mph - N/A   Overcast